Date String (YYYY-MM-DD hh:mm:ss) UTC,Instrument flags,Ambient pressure (hPa),Sample flow (lpm),Bypass flow (lpm),Sample temperature (°C),Ambient temperature (°C),ASC tube jacket temperature (°C),LED temperature (°C),Box temperature (°C),Sample RH (%),Span deviation,Mass concentration (μg/m³),Mass concentration (μg/m³),Mass concentration (μg/m³)
DateTimeUTC,F1_M11,P_M11,Q1_M11,Q2_M11,T1_M11,T2_M11,T3_M11,T4_M11,T5_M11,U1_M11,ZSPAN_M11,X0_M11,X2_M11,X1_M11
2022-10-18 11:00:00,,0832.6,5.00,0.00,25.4,23.8,00.0,34.2,27.3,14.9,0002.6,0018.18,0007.41,0006.46
2022-10-18 11:01:00,,0832.6,5.01,0.00,25.4,23.8,00.0,34.2,27.3,15.0,0002.3,0018.16,0007.33,0006.44
2022-10-18 11:02:00,,0832.6,5.02,0.00,25.4,23.8,00.0,34.2,27.3,15.0,0002.2,0018.33,0007.32,0006.45
2022-10-18 11:03:00,,0832.6,5.00,0.00,25.4,23.9,00.0,34.2,27.3,14.9,0002.3,0018.00,0007.29,0006.45
2022-10-18 11:04:00,,0832.7,4.98,0.00,25.4,23.8,00.0,34.2,27.3,14.9,0001.8,0018.60,0007.37,0006.44
2022-10-18 11:05:00,,0832.6,5.00,0.00,25.4,23.8,00.0,34.2,27.3,14.9,0001.3,0018.35,0007.39,0006.45
2022-10-18 11:06:00,,0832.6,5.01,0.00,25.4,23.8,00.0,34.2,27.3,14.9,0000.8,0018.31,0007.39,0006.47
2022-10-18 11:07:00,,0832.7,4.99,0.00,25.4,23.7,00.0,34.2,27.3,14.9,0001.1,0017.89,0007.41,0006.48
2022-10-18 11:08:00,,0832.7,4.99,0.00,25.4,23.7,00.0,34.2,27.3,14.9,0001.4,0017.59,0007.42,0006.50
2022-10-18 11:09:00,,0832.7,5.01,0.00,25.4,23.7,00.0,34.2,27.3,14.9,0001.3,0018.65,0007.46,0006.51
2022-10-18 11:10:00,,0832.7,4.99,0.00,25.4,23.7,00.0,34.2,27.2,15.0,0001.2,0019.21,0007.50,0006.52
2022-10-18 11:11:00,,0832.7,4.99,0.00,25.4,23.7,00.0,34.2,27.2,14.9,0001.3,0019.53,0007.55,0006.54
2022-10-18 11:12:00,,0832.7,5.00,0.00,25.4,23.7,00.0,34.2,27.2,14.9,0000.9,0020.08,0007.61,0006.55
2022-10-18 11:13:00,,0832.7,5.00,0.00,25.4,23.7,00.0,34.2,27.2,14.7,0000.0,0019.88,0007.64,0006.51
2022-10-18 11:14:00,,0832.7,5.01,0.00,25.4,23.8,00.0,34.2,27.2,14.6,0000.0,0019.78,0007.61,0006.46
2022-10-18 11:15:00,,0832.7,5.01,0.00,25.3,23.7,00.0,34.2,27.2,14.5,0000.0,0019.10,0007.50,0006.40
2022-10-18 11:16:00,,0832.7,4.98,0.00,25.3,23.7,00.0,34.2,27.2,14.6,0000.0,0019.69,0007.40,0006.33
2022-10-18 11:17:00,,0832.8,5.01,0.00,25.3,23.7,00.0,34.2,27.2,14.7,0000.0,0020.25,0007.42,0006.28
2022-10-18 11:18:00,,0832.7,5.01,0.00,25.3,23.7,00.0,34.2,27.2,14.7,0000.0,0019.44,0007.40,0006.25
2022-10-18 11:19:00,,0832.8,4.99,0.00,25.3,23.8,00.0,34.2,27.2,14.6,0000.0,0019.45,0007.36,0006.20
2022-10-18 11:20:00,,0832.8,5.00,0.00,25.3,23.8,00.0,34.2,27.2,14.6,0000.0,0018.51,0007.27,0006.13
2022-10-18 11:21:00,,0832.8,5.01,0.00,25.3,23.8,00.0,34.2,27.2,14.6,0000.0,0017.99,0007.21,0006.06
2022-10-18 11:22:00,,0832.8,5.00,0.00,25.3,23.8,00.0,34.2,27.2,14.5,0000.0,0016.61,0007.06,0005.99
2022-10-18 11:23:00,,0832.8,5.00,0.00,25.3,23.8,00.0,34.2,27.1,14.4,0000.0,0015.39,0006.91,0005.89
2022-10-18 11:24:00,,0832.8,5.00,0.00,25.3,23.8,00.0,34.2,27.2,14.3,0000.0,0014.80,0006.77,0005.82
2022-10-18 11:25:00,,0832.8,4.99,0.00,25.3,23.8,00.0,34.2,27.2,14.2,0000.0,0014.50,0006.70,0005.77
2022-10-18 11:26:00,,0832.8,5.00,0.00,25.3,23.8,00.0,34.1,27.2,13.9,0000.0,0015.14,0006.61,0005.69
2022-10-18 11:27:00,,0832.8,5.01,0.00,25.3,23.8,00.0,34.2,27.2,13.5,0000.0,0014.51,0006.43,0005.55
2022-10-18 11:28:00,,0832.8,5.00,0.00,25.3,23.8,00.0,34.2,27.2,13.4,0000.0,0013.26,0006.18,0005.38
2022-10-18 11:29:00,,0832.8,5.00,0.00,25.3,23.9,00.0,34.2,27.2,13.2,0000.0,0012.98,0005.94,0005.21
2022-10-18 11:30:00,,0832.8,5.00,0.00,25.3,23.8,00.0,34.2,27.2,13.2,0000.0,0012.59,0005.72,0005.05
2022-10-18 11:31:00,,0832.8,5.00,0.00,25.3,23.8,00.0,34.2,27.2,13.2,0000.0,0012.36,0005.55,0004.88
2022-10-18 11:32:00,,0832.7,5.00,0.00,25.3,23.8,00.0,34.2,27.2,13.2,0000.0,0011.09,0005.35,0004.73
2022-10-18 11:33:00,,0832.7,4.99,0.00,25.3,23.8,00.0,34.2,27.2,13.4,0000.0,0010.79,0005.18,0004.57
2022-10-18 11:34:00,,0832.7,5.00,0.00,25.3,23.8,00.0,34.2,27.2,13.5,0000.0,0010.76,0005.10,0004.47
2022-10-18 11:35:00,,0832.7,5.00,0.00,25.3,23.8,00.0,34.2,27.2,13.6,0000.0,0010.52,0004.99,0004.37
2022-10-18 11:36:00,,0832.8,5.00,0.00,25.3,23.8,00.0,34.2,27.2,13.7,0000.0,0010.06,0004.92,0004.32
2022-10-18 11:37:00,,0832.8,5.01,0.00,25.3,23.8,00.0,34.2,27.2,13.4,0000.0,0009.49,0004.83,0004.27
2022-10-18 11:38:00,,0832.8,5.00,0.00,25.3,23.8,00.0,34.2,27.2,13.3,0000.0,0008.73,0004.82,0004.24
2022-10-18 11:39:00,,0832.9,5.00,0.00,25.3,23.8,00.0,34.2,27.2,13.5,0000.0,0008.67,0004.81,0004.24
2022-10-18 11:40:00,,0832.8,4.99,0.00,25.3,23.7,00.0,34.2,27.2,13.3,0000.0,0008.66,0004.81,0004.24
2022-10-18 11:41:00,,0832.8,5.00,0.00,25.3,23.8,00.0,34.2,27.2,13.5,0000.0,0008.67,0004.87,0004.27
2022-10-18 11:42:00,,0832.8,5.01,0.00,25.3,23.7,00.0,34.1,27.2,13.6,0000.0,0008.79,0004.94,0004.31
2022-10-18 11:43:00,,0833.0,4.99,0.00,25.3,23.7,00.0,34.2,27.2,13.4,0000.0,0009.39,0004.98,0004.34
2022-10-18 11:44:00,,0833.0,5.01,0.00,25.3,23.7,00.0,34.1,27.1,13.4,0000.0,0009.52,0005.01,0004.35
2022-10-18 11:45:00,,0833.0,5.00,0.00,25.3,23.7,00.0,34.1,27.1,13.6,0000.0,0009.70,0004.99,0004.34
2022-10-18 11:46:00,,0833.0,5.00,0.00,25.3,23.7,00.0,34.1,27.1,13.6,0000.0,0009.98,0005.00,0004.34
2022-10-18 11:47:00,,0833.0,4.99,0.00,25.3,23.7,00.0,34.1,27.1,13.5,0000.0,0010.93,0004.99,0004.31
2022-10-18 11:48:00,,0832.9,5.00,0.00,25.3,23.7,00.0,34.1,27.2,13.5,0000.0,0010.88,0004.99,0004.29
2022-10-18 11:49:00,,0833.0,5.02,0.00,25.3,23.7,00.0,34.1,27.2,13.6,0000.0,0011.01,0005.00,0004.32
2022-10-18 11:50:00,,0833.0,4.99,0.00,25.3,23.7,00.0,34.1,27.1,13.6,0000.0,0011.12,0005.04,0004.35
2022-10-18 11:51:00,,0833.0,4.99,0.00,25.3,23.7,00.0,34.1,27.2,13.6,0000.0,0010.98,0005.10,0004.39
2022-10-18 11:52:00,,0833.0,5.01,0.00,25.3,23.7,00.0,34.1,27.2,13.5,0000.0,0011.11,0005.10,0004.40
2022-10-18 11:53:00,,0833.0,5.01,0.00,25.3,23.7,00.0,34.1,27.2,13.5,0000.0,0011.19,0005.04,0004.39
2022-10-18 11:54:00,,0833.0,5.00,0.00,25.3,23.7,00.0,34.1,27.1,13.6,0000.0,0011.19,0005.06,0004.42
2022-10-18 11:55:00,,0833.0,5.00,0.00,25.3,23.7,00.0,34.1,27.1,13.7,0000.0,0011.10,0005.10,0004.47
2022-10-18 11:56:00,,0833.0,4.99,0.00,25.3,23.7,00.0,34.1,27.1,13.7,0000.0,0011.54,0005.12,0004.49
2022-10-18 11:57:00,,0833.0,4.99,0.00,25.3,23.7,00.0,34.1,27.1,13.8,0000.0,0012.05,0005.13,0004.51
2022-10-18 11:58:00,,0833.1,5.01,0.00,25.3,23.6,00.0,34.1,27.1,13.8,0000.0,0011.10,0005.14,0004.54
2022-10-18 11:59:00,,0833.1,4.99,0.00,25.2,23.6,00.0,34.1,27.1,14.0,0000.0,0011.27,0005.19,0004.59
